Flag for U.S.A. Weather past 2 weeks in Clarksville, Tennessee, U.S.A.

Now
42 °F

Rain. Fog.


Feels Like: 38 °F
Forecast: 31 / 42 °F
Wind: 7 mph from Southwest

Location: Outlaw Field

Current Time: Jan 25, 2015 at 6:58:29 PM

Latest Report: Jan 25, 2015 at 5:52 PM


Visibility: 6 mi

Pressure: 29.69 "Hg

Humidity: 89%

Dew point: 39 °F

Location of ClarksvilleLocation

Historic Weather in Clarksville — Graph

°F

Clarksville temperature yesterday

Maximum temperature yesterday: 51 °F (at 2:52 PM)
Minimum temperature yesterday: 24 °F (at 6:52 AM)
Average temperature yesterday: 37 °F

Past Weeks' High & Low Weather Summary

 TemperatureHumidityPressure
High64 °F (Jan 19, 2:52 PM)100% (Jan 12, 3:52 AM)30.53 "Hg (Jan 12, 3:52 AM)
Low21 °F (Jan 10, 8:52 PM)24% (Jan 18, 2:52 PM)29.60 "Hg (Jan 25, 1:52 PM)
Average38 °F70%30.16 "Hg
* Reported Jan 10 5:52 PM — Jan 25 5:52 PM, Clarksville, Weather by CustomWeather, © 2014

Note: Actual official high and low records may vary slightly from our data, if they occured in-between our weather recording intervals... More about our weather records

Advertising

Clarksville weather history for previous 24 hours

 ConditionsComfort  
Time TempWeatherWind HumidityBarometerVisibility
5:52 PM
Jan 25
42 °FRain. Fog.7 mph89%29.69 "Hg6 mi
4:52 PM42 °FLight rain. Overcast.16 mph89%29.67 "Hg9 mi
3:52 PM45 °FLight rain. Mostly cloudy.9 mph90%29.65 "Hg10 mi
2:52 PM46 °FLight rain. Overcast.12 mph86%29.62 "Hg10 mi
1:52 PM49 °FMostly cloudy.14 mph69%29.60 "Hg10 mi
12:52 PM50 °FLight rain. Mostly cloudy.13 mph66%29.62 "Hg10 mi
11:52 AM51 °FOvercast.13 mph54%29.65 "Hg10 mi
10:52 AM50 °FOvercast.10 mph57%29.67 "Hg10 mi
9:52 AM47 °FOvercast.14 mph64%29.70 "Hg10 mi
8:52 AM44 °FSunny.10 mph68%29.71 "Hg10 mi
7:52 AM40 °FSunny.12 mph77%29.74 "Hg10 mi
6:52 AM39 °FSunny.9 mph76%29.75 "Hg10 mi
5:52 AM38 °FClear.8 mph79%29.76 "Hg10 mi
4:52 AM40 °FClear.9 mph73%29.77 "Hg10 mi
3:52 AM40 °FClear.9 mph73%29.79 "Hg10 mi
2:52 AM41 °FClear.10 mph70%29.82 "Hg10 mi
1:52 AM40 °FClear.9 mph70%29.83 "Hg10 mi
12:52 AM41 °FClear.7 mph65%29.84 "Hg10 mi
11:52 PM
Jan 24
40 °FClear.6 mph65%29.86 "Hg10 mi
10:52 PM41 °FClear.6 mph60%29.87 "Hg10 mi
9:52 PM37 °FClear.8 mph70%29.87 "Hg10 mi
8:52 PM40 °FClear.6 mph63%29.89 "Hg10 mi
7:52 PM43 °FClear.3 mph58%29.89 "Hg10 mi
6:52 PM45 °FClear.6 mph53%29.88 "Hg10 mi
Weather by CustomWeather, © 2014

See weather overviewHow to use our weather pages